Location: Hurstbourne Priors
(51.2000°N, 1.3667°W)
Time: 12:16:00
(UTC+00:00)

Meteor 1-27 - Pass Details

Date: 09 April 2020
Orbit: 837 x 893 km, 81.3° (Epoch: 28 May)

Event Time Altitude Azimuth Distance (km) Brightness Sun altitude
Exits shadow 22:47:29 75° 245° (WSW) 926 4.2 -28.4°
Maximum altitude 22:47:50 78° 284° (WNW) 916 4.3 -28.4°
Drops below altitude 10° 22:53:44 10° 11° (N) 2,575 7.4 -28.7°
Sets 22:56:12 0° 13° (NNE) 3,520 8.2 -28.8°
